• In Germany
  • List of Countries
  • For 7 days
  • Water Temperature
  • Satellite Maps
  • Weather Map
  • Weather Widgets
  • user-avatar
    Login

    Hourly Weather Banja Luka

    Today, 16 January, Tuesday

    Time Temperature Precipitation Wind Pressure Humidity
    00:00 -2°C° 0 mm 2 mps 715 mmHg 90%
    01:00 -2°C° 0 mm 2 mps 715 mmHg 86%
    02:00 -1°C° 0 mm 2 mps 714 mmHg 85%
    03:00 -1°C° 0 mm 2 mps 714 mmHg 84%
    04:00 0°C° 0 mm 3 mps 713 mmHg 83%
    05:00 +1°C° 0.2 mm 3 mps 712 mmHg 83%
    06:00 +1°C° 0.2 mm 3 mps 711 mmHg 84%
    07:00 +2°C° 0.2 mm 3 mps 711 mmHg 84%
    08:00 +3°C° 0.3 mm 4 mps 710 mmHg 82%
    09:00 +4°C° 0.3 mm 4 mps 710 mmHg 80%
    10:00 +5°C° 0.3 mm 5 mps 710 mmHg 78%
    11:00 +6°C° 0.2 mm 5 mps 709 mmHg 76%
    12:00 +7°C° 0.2 mm 5 mps 709 mmHg 74%
    13:00 +7°C° 0.2 mm 6 mps 708 mmHg 72%
    14:00 +7°C° 0.1 mm 5 mps 708 mmHg 75%
    15:00 +6°C° 0.1 mm 5 mps 707 mmHg 77%
    16:00 +5°C° 0.1 mm 5 mps 707 mmHg 80%
    17:00 +5°C° 0 mm 5 mps 706 mmHg 82%
    18:00 +5°C° 0 mm 5 mps 706 mmHg 83%
    19:00 +5°C° 0 mm 4 mps 706 mmHg 85%
    20:00 +5°C° 0 mm 5 mps 706 mmHg 84%
    21:00 +5°C° 0 mm 5 mps 706 mmHg 84%
    22:00 +5°C° 0 mm 5 mps 706 mmHg 84%
    23:00 +5°C° 0.1 mm 5 mps 706 mmHg 84%

    Tomorrow, 17 January, Wednesday

    Time Temperature Precipitation Wind Pressure Humidity
    00:00 +5°C° 0.1 mm 4 mps 705 mmHg 85%
    01:00 +5°C° 0.1 mm 4 mps 705 mmHg 85%
    02:00 +5°C° 0.1 mm 4 mps 704 mmHg 86%
    03:00 +6°C° 0.1 mm 5 mps 703 mmHg 86%
    04:00 +6°C° 0.1 mm 5 mps 703 mmHg 86%
    05:00 +6°C° 0.7 mm 5 mps 702 mmHg 86%
    06:00 +6°C° 0.7 mm 5 mps 702 mmHg 87%
    07:00 +6°C° 0.7 mm 5 mps 701 mmHg 87%
    08:00 +6°C° 1.5 mm 5 mps 701 mmHg 87%
    09:00 +6°C° 1.5 mm 5 mps 701 mmHg 86%
    10:00 +6°C° 1.5 mm 5 mps 700 mmHg 86%
    11:00 +6°C° 1.2 mm 4 mps 701 mmHg 85%
    12:00 +5°C° 1.2 mm 3 mps 701 mmHg 83%
    13:00 +5°C° 1.2 mm 3 mps 701 mmHg 82%
    14:00 +4°C° 1.2 mm 3 mps 702 mmHg 82%
    15:00 +3°C° 1.2 mm 4 mps 703 mmHg 83%
    16:00 +1°C° 1.2 mm 4 mps 704 mmHg 83%
    17:00 0°C° 0.7 mm 4 mps 705 mmHg 82%
    18:00 0°C° 0.7 mm 4 mps 706 mmHg 80%
    19:00 -1°C° 0.7 mm 4 mps 707 mmHg 79%
    20:00 -1°C° 0 mm 3 mps 708 mmHg 77%
    21:00 -2°C° 0 mm 2 mps 709 mmHg 75%
    22:00 -3°C° 0 mm 2 mps 710 mmHg 73%
    23:00 -4°C° 0 mm 2 mps 710 mmHg 72%

    Day after tomorrow, 18 January, Thursday

    Time Temperature Precipitation Wind Pressure Humidity
    00:00 -4°C° 0 mm 2 mps 711 mmHg 71%
    01:00 -4°C° 0 mm 2 mps 711 mmHg 70%
    02:00 -4°C° 0 mm 2 mps 711 mmHg 70%
    03:00 -4°C° 0 mm 2 mps 712 mmHg 70%
    04:00 -4°C° 0 mm 2 mps 712 mmHg 69%
    05:00 -3°C° 0 mm 2 mps 712 mmHg 69%
    06:00 -3°C° 0 mm 2 mps 713 mmHg 69%
    07:00 -3°C° 0 mm 2 mps 713 mmHg 70%
    08:00 -1°C° 0 mm 2 mps 713 mmHg 67%
    09:00 +1°C° 0 mm 3 mps 714 mmHg 64%
    10:00 +3°C° 0 mm 3 mps 714 mmHg 61%
    11:00 +3°C° 0 mm 4 mps 714 mmHg 60%
    12:00 +4°C° 0 mm 4 mps 713 mmHg 59%
    13:00 +5°C° 0 mm 5 mps 713 mmHg 58%
    14:00 +4°C° 0 mm 4 mps 712 mmHg 60%
    15:00 +4°C° 0 mm 4 mps 712 mmHg 63%
    16:00 +3°C° 0 mm 4 mps 711 mmHg 65%
    17:00 +3°C° 0 mm 4 mps 711 mmHg 66%
    18:00 +1°C° 0 mm 4 mps 711 mmHg 66%
    19:00 0°C° 0 mm 4 mps 711 mmHg 67%
    20:00 0°C° 0 mm 4 mps 711 mmHg 66%
    21:00 +1°C° 0 mm 4 mps 711 mmHg 66%
    22:00 +1°C° 0 mm 5 mps 711 mmHg 65%
    23:00 +1°C° 0 mm 5 mps 710 mmHg 68%

    19 January, Friday

    Time Temperature Precipitation Wind Pressure Humidity
    00:00 +1°C° 0 mm 5 mps 710 mmHg 71%
    01:00 +1°C° 0 mm 5 mps 710 mmHg 74%
    02:00 +2°C° 0 mm 5 mps 709 mmHg 76%
    03:00 +2°C° 0 mm 5 mps 709 mmHg 78%
    04:00 +2°C° 0 mm 5 mps 709 mmHg 80%
    05:00 +2°C° 0 mm 5 mps 708 mmHg 81%
    06:00 +3°C° 0 mm 5 mps 708 mmHg 83%
    07:00 +4°C° 0 mm 4 mps 708 mmHg 84%
    08:00 +3°C° 0 mm 5 mps 708 mmHg 83%
    09:00 +5°C° 0 mm 5 mps 708 mmHg 81%
    10:00 +6°C° 0 mm 5 mps 708 mmHg 79%
    11:00 +6°C° 0 mm 5 mps 708 mmHg 78%
    12:00 +7°C° 0 mm 5 mps 708 mmHg 78%
    13:00 +7°C° 0 mm 5 mps 708 mmHg 77%
    14:00 +7°C° 0.2 mm 5 mps 707 mmHg 79%
    15:00 +7°C° 0.2 mm 4 mps 707 mmHg 81%
    16:00 +6°C° 0.2 mm 4 mps 707 mmHg 84%
    17:00 +7°C° 0.4 mm 3 mps 707 mmHg 86%
    18:00 +7°C° 0.4 mm 3 mps 707 mmHg 88%
    19:00 +7°C° 0.4 mm 3 mps 707 mmHg 90%
    20:00 +5°C° 1.1 mm 3 mps 707 mmHg 91%
    21:00 +6°C° 1.1 mm 2 mps 707 mmHg 92%
    22:00 +5°C° 1.1 mm 2 mps 707 mmHg 94%
    23:00 +5°C° 1.3 mm 2 mps 707 mmHg 94%

    20 January, Saturday

    Time Temperature Precipitation Wind Pressure Humidity
    00:00 +4°C° 1.3 mm 2 mps 707 mmHg 95%
    01:00 +4°C° 1.3 mm 2 mps 707 mmHg 95%
    02:00 +4°C° 1.9 mm 2 mps 706 mmHg 96%
    03:00 +3°C° 1.9 mm 2 mps 705 mmHg 96%
    04:00 +3°C° 1.9 mm 2 mps 705 mmHg 96%
    05:00 +3°C° 2.3 mm 2 mps 705 mmHg 96%
    06:00 +3°C° 2.3 mm 2 mps 704 mmHg 97%
    07:00 +3°C° 2.3 mm 1 mps 704 mmHg 97%
    08:00 +3°C° 2.7 mm 1 mps 704 mmHg 97%
    09:00 +3°C° 2.7 mm 1 mps 704 mmHg 97%
    10:00 +3°C° 2.7 mm 1 mps 703 mmHg 97%
    11:00 +2°C° 2.7 mm 1 mps 703 mmHg 97%
    12:00 +2°C° 2.7 mm 1 mps 703 mmHg 97%
    13:00 +2°C° 2.7 mm 1 mps 702 mmHg 97%
    14:00 +2°C° 2.3 mm 1 mps 702 mmHg 97%
    15:00 +2°C° 2.3 mm 1 mps 702 mmHg 98%
    16:00 +2°C° 2.3 mm 1 mps 702 mmHg 98%
    17:00 +2°C° 2 mm 1 mps 702 mmHg 98%
    18:00 -1°C° 2 mm 2 mps 702 mmHg 98%
    19:00 -1°C° 2 mm 2 mps 702 mmHg 98%
    20:00 -1°C° 1.5 mm 2 mps 702 mmHg 97%
    21:00 -1°C° 1.5 mm 2 mps 702 mmHg 97%
    22:00 -1°C° 1.5 mm 3 mps 702 mmHg 97%
    23:00 -2°C° 1.6 mm 3 mps 701 mmHg 97%

    21 January, Sunday

    Time Temperature Precipitation Wind Pressure Humidity
    00:00 -2°C° 1.6 mm 3 mps 701 mmHg 97%
    01:00 -3°C° 1.6 mm 4 mps 701 mmHg 97%
    02:00 -3°C° 1.7 mm 4 mps 700 mmHg 96%
    03:00 -4°C° 1.7 mm 4 mps 700 mmHg 96%
    04:00 -4°C° 1.7 mm 4 mps 700 mmHg 96%
    05:00 -4°C° 1.7 mm 4 mps 700 mmHg 96%
    06:00 -4°C° 1.7 mm 4 mps 700 mmHg 96%
    07:00 -4°C° 1.7 mm 4 mps 700 mmHg 96%
    08:00 -5°C° 1.1 mm 5 mps 701 mmHg 96%
    09:00 -5°C° 1.1 mm 5 mps 701 mmHg 96%
    10:00 -5°C° 1.1 mm 5 mps 701 mmHg 95%
    11:00 -5°C° 1 mm 5 mps 701 mmHg 95%
    12:00 -5°C° 1 mm 5 mps 701 mmHg 95%
    13:00 -5°C° 1 mm 5 mps 702 mmHg 95%
    14:00 -5°C° 0.9 mm 5 mps 702 mmHg 95%
    15:00 -5°C° 0.9 mm 5 mps 703 mmHg 95%
    16:00 -5°C° 0.9 mm 5 mps 703 mmHg 94%
    17:00 -6°C° 0.9 mm 5 mps 704 mmHg 95%
    18:00 -6°C° 0.9 mm 5 mps 705 mmHg 95%
    19:00 -6°C° 0.9 mm 5 mps 705 mmHg 95%
    20:00 -6°C° 0.7 mm 5 mps 706 mmHg 95%
    21:00 -7°C° 0.7 mm 5 mps 706 mmHg 94%
    22:00 -7°C° 0.7 mm 5 mps 707 mmHg 94%
    23:00 -7°C° 0.4 mm 5 mps 707 mmHg 94%
    Show more